TimeCET,TemperatureF,Dew PointF,Humidity,Sea Level PressureIn,VisibilityMPH,Wind Direction,Wind SpeedMPH,Gust SpeedMPH,PrecipitationIn,Events,Conditions,WindDirDegrees,DateUTC
12:25 AM,42.8,28.4,57,29.95,6.2,South,9.2,-,N/A,,Overcast,190,2012-10-28 23:25:00
12:55 AM,42.8,28.4,57,29.95,6.2,South,11.5,-,N/A,,Overcast,180,2012-10-28 23:55:00
1:00 AM,42,29,49,29.97,28,South,11.2,,,,Partly Cloudy,180,2012-10-29 00:00:00
1:25 AM,42.8,30.2,61,29.95,6.2,South,11.5,-,N/A,,Overcast,180,2012-10-29 00:25:00
1:55 AM,42.8,30.2,61,29.95,6.2,South,11.5,-,N/A,,Overcast,180,2012-10-29 00:55:00
2:25 AM,42.8,30.2,61,29.95,6.2,South,12.7,-,N/A,,Overcast,180,2012-10-29 01:25:00
2:55 AM,41.0,30.2,65,29.92,6.2,South,13.8,-,N/A,,Overcast,180,2012-10-29 01:55:00
3:25 AM,41.0,30.2,65,29.92,6.2,South,11.5,-,N/A,,Overcast,180,2012-10-29 02:25:00
3:55 AM,41.0,30.2,65,29.92,6.2,South,12.7,-,N/A,,Overcast,180,2012-10-29 02:55:00
4:00 AM,41,30,55,29.93,28,South,11.2,,,,Overcast,190,2012-10-29 03:00:00
4:25 AM,41.0,30.2,65,29.92,6.2,South,10.4,-,N/A,,Overcast,180,2012-10-29 03:25:00
4:55 AM,41.0,30.2,65,29.92,6.2,South,10.4,-,N/A,,Overcast,190,2012-10-29 03:55:00
5:25 AM,41.0,30.2,65,29.89,6.2,South,9.2,-,N/A,,Mostly Cloudy,190,2012-10-29 04:25:00
5:55 AM,41.0,30.2,65,29.89,6.2,South,11.5,-,N/A,,Overcast,190,2012-10-29 04:55:00
6:25 AM,41.0,30.2,65,29.89,6.2,South,11.5,-,N/A,,Overcast,180,2012-10-29 05:25:00
6:34 AM,41.0,30.2,65,29.89,6.2,South,11.5,-,N/A,,Overcast,190,2012-10-29 05:34:00
6:38 AM,41.0,30.2,65,29.89,6.2,South,11.5,-,N/A,,Overcast,190,2012-10-29 05:38:00
6:55 AM,41.0,30.2,65,29.89,6.2,South,11.5,-,N/A,,Overcast,190,2012-10-29 05:55:00
7:00 AM,41,31,56,29.90,28,South,11.2,,,Rain,Light Rain Showers,190,2012-10-29 06:00:00
7:25 AM,41.0,32.0,70,29.89,6.2,South,10.4,-,N/A,,Light Drizzle,190,2012-10-29 06:25:00
7:55 AM,39.2,35.6,87,29.89,6.2,SSW,12.7,-,N/A,,Drizzle,200,2012-10-29 06:55:00
8:13 AM,39.2,35.6,87,29.89,6.2,South,10.4,-,N/A,,Drizzle,190,2012-10-29 07:13:00
8:25 AM,39.2,35.6,87,29.89,6.2,South,10.4,-,N/A,Rain,Light Rain,190,2012-10-29 07:25:00
8:47 AM,39.2,37.4,93,29.89,6.2,South,11.5,-,N/A,,Light Drizzle,190,2012-10-29 07:47:00
8:55 AM,41.0,37.4,87,29.89,6.2,South,11.5,-,N/A,,Light Drizzle,190,2012-10-29 07:55:00
9:08 AM,41.0,37.4,87,29.89,6.2,SSW,12.7,-,N/A,,Drizzle,200,2012-10-29 08:08:00
9:25 AM,41.0,39.2,93,29.89,6.2,SSW,13.8,-,N/A,,Drizzle,200,2012-10-29 08:25:00
9:47 AM,41.0,39.2,93,29.89,6.2,SSW,11.5,-,N/A,,Drizzle,210,2012-10-29 08:47:00
9:55 AM,41.0,39.2,93,29.89,6.2,SSW,10.4,-,N/A,,Drizzle,200,2012-10-29 08:55:00
10:00 AM,41,40,92,29.91,7,SSW,11.2,,,Rain,Drizzle,200,2012-10-29 09:00:00
10:08 AM,41.0,39.2,93,29.89,6.2,SSW,13.8,-,N/A,,Light Drizzle,200,2012-10-29 09:08:00
10:09 AM,41.0,39.2,93,29.89,6.2,South,12.7,-,N/A,,Light Drizzle,190,2012-10-29 09:09:00
10:25 AM,41.0,41.0,100,29.89,6.2,South,11.5,-,N/A,,Overcast,190,2012-10-29 09:25:00
10:29 AM,41.0,41.0,100,29.89,6.2,South,11.5,-,N/A,,Overcast,190,2012-10-29 09:29:00
10:33 AM,41.0,41.0,100,29.89,6.2,South,11.5,-,N/A,Rain,Light Rain,190,2012-10-29 09:33:00
10:55 AM,42.8,41.0,93,29.89,6.2,SSW,12.7,-,N/A,Rain,Light Rain,200,2012-10-29 09:55:00
11:25 AM,42.8,41.0,93,29.86,6.2,SSW,12.7,-,N/A,,Overcast,200,2012-10-29 10:25:00
11:29 AM,42.8,41.0,93,29.86,6.2,SSW,12.7,-,N/A,,Overcast,200,2012-10-29 10:29:00
11:55 AM,42.8,41.0,93,29.86,6.2,SSW,13.8,-,N/A,,Overcast,210,2012-10-29 10:55:00
12:25 PM,44.6,42.8,93,29.86,6.2,SSW,15.0,-,N/A,,Overcast,210,2012-10-29 11:25:00
12:55 PM,44.6,42.8,93,29.86,6.2,SSW,12.7,-,N/A,,Overcast,210,2012-10-29 11:55:00
1:00 PM,45,43,88,29.86,10,SSW,13.4,,,,Partly Cloudy,210,2012-10-29 12:00:00
1:25 PM,46.4,42.8,87,29.83,6.2,SSW,13.8,-,N/A,,Mostly Cloudy,200,2012-10-29 12:25:00
1:31 PM,46.4,42.8,87,29.83,6.2,SSW,13.8,-,N/A,,Mostly Cloudy,200,2012-10-29 12:31:00
1:36 PM,46.4,42.8,87,29.83,6.2,SSW,12.7,-,N/A,,Mostly Cloudy,200,2012-10-29 12:36:00
1:40 PM,46.4,42.8,87,29.83,6.2,SSW,12.7,-,N/A,,Mostly Cloudy,200,2012-10-29 12:40:00
1:44 PM,46.4,42.8,87,29.83,6.2,SSW,13.8,-,N/A,,Mostly Cloudy,200,2012-10-29 12:44:00
1:55 PM,46.4,42.8,87,29.83,6.2,SSW,12.7,-,N/A,,Overcast,200,2012-10-29 12:55:00
2:25 PM,46.4,42.8,87,29.80,6.2,SSW,12.7,-,N/A,,Overcast,210,2012-10-29 13:25:00
2:26 PM,46.4,42.8,87,29.80,6.2,SSW,12.7,-,N/A,,Overcast,210,2012-10-29 13:26:00
2:55 PM,46.4,42.8,87,29.80,6.2,SSW,13.8,-,N/A,,Overcast,200,2012-10-29 13:55:00
3:25 PM,46.4,42.8,87,29.80,6.2,SSW,15.0,-,N/A,,Drizzle,210,2012-10-29 14:25:00
3:47 PM,46.4,42.8,87,29.80,6.2,SSW,13.8,-,N/A,,Light Drizzle,210,2012-10-29 14:47:00
3:55 PM,46.4,42.8,87,29.80,6.2,SSW,13.8,-,N/A,,Overcast,210,2012-10-29 14:55:00
3:56 PM,46.4,42.8,87,29.80,6.2,SSW,15.0,-,N/A,,Overcast,210,2012-10-29 14:56:00
4:00 PM,47,43,82,29.81,14,SSW,13.4,,,Rain,Drizzle,210,2012-10-29 15:00:00
4:10 PM,46.4,42.8,87,29.80,6.2,SSW,12.7,-,N/A,,Overcast,210,2012-10-29 15:10:00
4:11 PM,46.4,42.8,87,29.80,6.2,SSW,12.7,-,N/A,,Overcast,210,2012-10-29 15:11:00
4:25 PM,46.4,42.8,87,29.80,6.2,SSW,12.7,-,N/A,,Light Drizzle,210,2012-10-29 15:25:00
4:55 PM,46.4,42.8,87,29.77,6.2,SSW,12.7,-,N/A,,Drizzle,200,2012-10-29 15:55:00
5:25 PM,46.4,44.6,93,29.77,6.2,SSW,11.5,-,N/A,,Overcast,200,2012-10-29 16:25:00
5:26 PM,46.4,44.6,93,29.77,6.2,SSW,11.5,-,N/A,,Overcast,200,2012-10-29 16:26:00
5:55 PM,46.4,44.6,93,29.77,6.2,SSW,13.8,-,N/A,,Overcast,210,2012-10-29 16:55:00
6:25 PM,46.4,42.8,87,29.77,6.2,SSW,13.8,-,N/A,,Overcast,210,2012-10-29 17:25:00
6:55 PM,46.4,42.8,87,29.74,6.2,SSW,13.8,-,N/A,,Mostly Cloudy,200,2012-10-29 17:55:00
7:00 PM,46,43,87,29.77,14,SSW,13.4,,,,Partly Cloudy,200,2012-10-29 18:00:00
7:05 PM,46.4,42.8,87,29.74,6.2,SSW,13.8,-,N/A,,Overcast,200,2012-10-29 18:05:00
7:14 PM,46.4,42.8,87,29.74,6.2,SSW,16.1,-,N/A,,Overcast,200,2012-10-29 18:14:00
7:20 PM,46.4,42.8,87,29.74,6.2,SSW,15.0,-,N/A,,Drizzle,200,2012-10-29 18:20:00
7:25 PM,46.4,42.8,87,29.74,6.2,SSW,15.0,-,N/A,Rain,Light Rain,200,2012-10-29 18:25:00
7:29 PM,46.4,42.8,87,29.74,6.2,SSW,15.0,-,N/A,Rain,Light Rain,200,2012-10-29 18:29:00
7:49 PM,46.4,42.8,87,29.74,6.2,SSW,15.0,-,N/A,,Overcast,200,2012-10-29 18:49:00
7:55 PM,46.4,42.8,87,29.74,6.2,SSW,15.0,-,N/A,Rain,Light Rain,200,2012-10-29 18:55:00
8:05 PM,46.4,42.8,87,29.74,6.2,SSW,15.0,-,N/A,Rain,Light Rain,200,2012-10-29 19:05:00
8:13 PM,46.4,42.8,87,29.74,6.2,SSW,16.1,-,N/A,,Mostly Cloudy,210,2012-10-29 19:13:00
8:20 PM,46.4,42.8,87,29.74,6.2,SSW,17.3,-,N/A,,Overcast,210,2012-10-29 19:20:00
8:25 PM,46.4,42.8,87,29.74,6.2,SSW,17.3,-,N/A,,Mostly Cloudy,210,2012-10-29 19:25:00
8:30 PM,46.4,42.8,87,29.74,6.2,SSW,17.3,-,N/A,,Mostly Cloudy,210,2012-10-29 19:30:00
8:35 PM,46.4,42.8,87,29.74,6.2,SSW,17.3,-,N/A,,Mostly Cloudy,210,2012-10-29 19:35:00
8:44 PM,46.4,42.8,87,29.74,6.2,SSW,18.4,-,N/A,,Mostly Cloudy,210,2012-10-29 19:44:00
8:48 PM,46.4,42.8,87,29.74,3.1,SW,17.3,-,N/A,Rain,Light Rain,220,2012-10-29 19:48:00
8:55 PM,46.4,42.8,87,29.74,5.6,SW,16.1,-,N/A,Rain,Light Rain Showers,220,2012-10-29 19:55:00
8:59 PM,46.4,44.6,93,29.74,6.2,SW,16.1,-,N/A,Rain,Light Rain Showers,220,2012-10-29 19:59:00
9:00 PM,46.4,44.6,93,29.74,6.2,SW,15.0,-,N/A,Rain,Light Rain Showers,220,2012-10-29 20:00:00
9:08 PM,46.4,42.8,87,29.74,5.6,SW,13.8,-,N/A,Rain,Light Rain Showers,220,2012-10-29 20:08:00
9:13 PM,46.4,44.6,93,29.74,6.2,SW,13.8,-,N/A,Rain,Light Rain,220,2012-10-29 20:13:00
9:20 PM,46.4,44.6,93,29.74,6.2,SSW,15.0,-,N/A,Rain,Light Rain Showers,210,2012-10-29 20:20:00
9:25 PM,46.4,44.6,93,29.74,6.2,SSW,13.8,-,N/A,Rain,Light Rain,210,2012-10-29 20:25:00
9:29 PM,44.6,44.6,100,29.74,5.6,SW,13.8,-,N/A,Rain,Light Rain,220,2012-10-29 20:29:00
9:42 PM,44.6,44.6,100,29.74,6.2,SW,13.8,-,N/A,Rain,Light Rain,220,2012-10-29 20:42:00
9:43 PM,46.4,44.6,93,29.74,6.2,SSW,13.8,-,N/A,Rain,Light Rain,210,2012-10-29 20:43:00
9:48 PM,44.6,44.6,100,29.71,6.2,SSW,13.8,-,N/A,Rain,Light Rain,210,2012-10-29 20:48:00
9:55 PM,44.6,44.6,100,29.71,5.6,SSW,12.7,-,N/A,Rain,Light Rain,210,2012-10-29 20:55:00
10:00 PM,45,44,95,29.74,6,SSW,13.4,,,Rain,Light Rain,210,2012-10-29 21:00:00
10:25 PM,46.4,44.6,93,29.71,6.2,SSW,12.7,-,N/A,Rain,Light Rain,210,2012-10-29 21:25:00
10:55 PM,46.4,44.6,93,29.71,6.2,SSW,13.8,-,N/A,Rain,Light Rain,210,2012-10-29 21:55:00
11:25 PM,46.4,44.6,93,29.68,6.2,SW,15.0,-,N/A,,Light Drizzle,220,2012-10-29 22:25:00
11:55 PM,46.4,44.6,93,29.68,6.2,SW,13.8,-,N/A,,Overcast,230,2012-10-29 22:55:00